Regional Weather Roundup
Issued by NWS

Home | Current Version | Previous Version | Text Only | Print | Product List | Glossary Off
Versions: 1 2 3 4 5 6 7 8 9 10 11 12 13 14 15 16 17 18 19 20 21 22 23 24 25 26 27 28 29 30 31 32 33 34 35 36 37 38 39 40 41 42 43 44 45 46 47 48 49 50

000
ASUS43 KLMK 200402
RWRKY
KENTUCKY REGIONAL WEATHER ROUNDUP
NATIONAL WEATHER SERVICE LOUISVILLE KY
1200 AM EDT FRI APR 20 2018

NOTE "FAIR" INDICATES FEW OR NO CLOUDS BELOW 12,000 FEET
WITH NO SIGNIFICANT WEATHER AND/OR OBSTRUCTIONS TO VISIBILITY.

KYZ001>023-026-027-061>063-070>075-200500-
WESTERN AND SOUTH CENTRAL KENTUCKY

CITY           SKY/WX    TMP DP  RH WIND       PRES   REMARKS
PADUCAH        FAIR      39  33  79 CALM      30.38S
HENDERSON      FAIR      39  34  82 CALM      30.38F
OWENSBORO      FAIR      43  33  68 NW3       30.37F
HOPKINSVILLE   FAIR      43  33  68 CALM      30.36S
BOWLING GREEN  FAIR      42  33  70 CALM      30.37S
GLASGOW        NOT AVBL
$$

KYZ024-025-028>034-038-045-046-053-200500-
NORTH CENTRAL KENTUCKY

CITY           SKY/WX    TMP DP  RH WIND       PRES   REMARKS
LOUISVILLE/SDF FAIR      46  31  55 NW5       30.35R
LOUISVILLE/LOU FAIR      41  35  79 CALM      30.36R
FORT KNOX      FAIR      38  31  76 CALM      30.35S
$$

KYZ035>037-039>044-047>052-055>060-089>105-200500-
NORTHEAST KENTUCKY

CITY           SKY/WX    TMP DP  RH WIND       PRES   REMARKS
LEXINGTON      FAIR      41  30  65 SW3       30.33S
COVINGTON      FAIR      44  26  49 NW9       30.32S
FRANKFORT      FAIR      37  30  75 CALM      30.32S
$$

KYZ054-064>069-076>088-106>120-200500-
SOUTHEAST KENTUCKY

CITY           SKY/WX    TMP DP  RH WIND       PRES   REMARKS
JACKSON        FAIR      38  28  67 CALM      30.32S
LONDON         FAIR      36  31  82 CALM      30.34R
SOMERSET       NOT AVBL
MIDDLESBORO    FAIR      35  32  88 CALM      30.36R
MONTICELLO     FAIR      30  28  92 VRB3      30.37F
$$




USA.gov is the U.S. government's official web portal to all federal, state and local government web resources and services.